Powrót do katalogu

SKYNET 2B

AktywnyMilitariaGEO
NORAD 7547·PAYLOAD·🇬🇧 United Kingdom

Wystrzelony Nov 23, 1974 z Cape Canaveral Space Force Station

Loading…

TLE

ŚwieżeSource: Space-Track

Epoka: Sep 14, 2026, 14:24 UTC

1 07547U 74094A   26257.60006111 -.00000357  00000-0  00000-0 0  9990
2 07547   3.3517 280.0010 0003212 244.8177 170.7620  1.00332994125660

Śledź SKYNET 2B w czasie rzeczywistym z AllMySat

Download on the App Store